Weather History for KD07 - September, 2012

Change the Weather History Date:

Sunday, September 9, 2012

  Actual Average Record
Temperature  
Mean Temperature 66 °F 64 °F  
Max Temperature 89 °F 78 °F 100 °F (1998)
Min Temperature 43 °F 50 °F 35 °F (2001)
Degree Days  
Heating Degree Days 0 4  
Month to date heating degree days 6 28  
Since 1 July heating degree days 21 61  
Cooling Degree Days 1 3  
Month to date cooling degree days 60 35  
Year to date cooling degree days 948 610  
Growing Degree Days 16 (Base 50)    
Moisture  
Dew Point 31 °F    
Average Humidity 34    
Maximum Humidity 53    
Minimum Humidity 14    
Precipitation  
Precipitation 0.00 in 0.04 in 0.56 in (2010)
Month to date precipitation 0.00 0.49  
Year to date precipitation 11.95 14.31  
Sea Level Pressure  
Sea Level Pressure 30.00 in    
Wind  
Wind Speed 18 mph (SSE)    
Max Wind Speed 28 mph    
Max Gust Speed 35 mph    
T = Trace of Precipitation, MM = Missing Value Source: NWS Daily Summary

Daily Weather History Graph

Daily Weather History Graph

Search for Another Location

Airport or City:

Trip Planner

Search our weather history database for the weather conditions in past years. The results will help you decide how hot, cold, wet, or windy it might be!

Date:

Astronomy

Sep. 09, 2012 Rise Set
Actual Time 6:20 AM MDT 7:09 PM MDT
Civil Twilight 5:50 AM MDT 7:39 PM MDT
Nautical Twilight 5:14 AM MDT 8:14 PM MDT
Astronomical Twilight 4:37 AM MDT 8:51 PM MDT
Moon No Moon Rise 3:07 PM MDT (9/9)
Length of Visible Light 13h 48m
Length of Day
12h 49m
Last Quarter, 39% of the Moon is Illuminated
Sep 9
Last Quarter
Sep 15
New
Sep 22
First Quarter
Sep 29
Full
Oct 8
Last Quarter

Hourly Weather History & Observations

Time (MDT) Temp. Windchill Dew Point Humidity Pressure Visibility Wind Dir Wind Speed Gust Speed Precip Events Conditions
2:56 AM 45.0 °F 40.1 °F 26.1 °F 48% 30.20 in - SSE 9.2 mph - N/A   Unknown
3:56 AM 44.1 °F 38.1 °F 26.1 °F 49% 30.20 in - South 11.5 mph - N/A   Unknown
4:56 AM 46.0 °F 39.6 °F 26.1 °F 46% 30.19 in - South 15.0 mph - N/A   Unknown
5:56 AM 43.0 °F 35.7 °F 26.1 °F 51% 30.19 in - South 15.0 mph - N/A   Unknown
6:56 AM 45.0 °F 37.9 °F 28.0 °F 52% 30.19 in - SSE 16.1 mph - N/A   Unknown
7:56 AM 57.0 °F - 28.9 °F 34% 30.17 in - SSE 17.3 mph - N/A   Unknown
8:56 AM 63.0 °F - 28.0 °F 27% 30.14 in - South 23.0 mph 29.9 mph N/A   Unknown
9:56 AM 68.0 °F - 28.9 °F 23% 30.12 in - South 23.0 mph - N/A   Unknown
10:56 AM 73.0 °F - 30.0 °F 20% 30.08 in - SSE 23.0 mph 33.4 mph N/A   Unknown
11:56 AM 78.1 °F - 33.1 °F 19% 30.05 in - South 23.0 mph 31.1 mph N/A   Unknown
12:56 PM 81.0 °F - 34.0 °F 18% 30.02 in - SSE 21.9 mph 34.5 mph N/A   Unknown
1:56 PM 84.0 °F - 33.1 °F 16% 29.99 in - South 23.0 mph 31.1 mph N/A   Unknown
2:56 PM 86.0 °F - 33.1 °F 15% 29.94 in - SSE 21.9 mph 33.4 mph N/A   Unknown
3:56 PM 88.0 °F - 32.0 °F 14% 29.90 in - South 25.3 mph 31.1 mph N/A   Unknown
4:56 PM 88.0 °F - 33.1 °F 14% 29.87 in - SSE 20.7 mph 27.6 mph N/A   Unknown
5:56 PM 87.1 °F - 32.0 °F 14% 29.85 in - SSE 18.4 mph - N/A   Unknown
6:56 PM 82.0 °F - 32.0 °F 16% 29.85 in - SE 12.7 mph - N/A   Unknown
7:56 PM 77.0 °F - 33.1 °F 20% 29.83 in - SE 16.1 mph - N/A   Unknown
8:56 PM 73.9 °F - 32.0 °F 21% 29.82 in - SE 18.4 mph - N/A   Unknown
9:56 PM 71.1 °F - 33.1 °F 25% 29.79 in - SE 19.6 mph - N/A   Unknown
10:56 PM 68.0 °F - 33.1 °F 27% 29.78 in - SSE 17.3 mph - N/A   Unknown
11:56 PM 66.9 °F - 34.0 °F 30% 29.75 in - SSE 16.1 mph - N/A   Unknown